[[{"header":{"parameterUnit":"m.s-1","parameterCategory":1,"la1":30.2991,"la2":30.254,"lo1":-89.0895,"lo2":-89.0444,"dy":0.0017,"dx":0.0017,"nx":28,"ny":28,"refTime":"2023-11-01T09:00:00:Z","depth":0,"parameterNumber":2,"parameterNumberName":"U-component_of_WINDS"},"data":[0,0,0,0,0,0,0,0,0,0,0,0,0,0,0,0,0,0,0,0,0,0,0,0,0,0,0,0,0,0,0,0,0,0,0,0,0,0,0,0,0,0,0,0,0,0,0,0,0,0,0,0,0,0,0,0,0,0,-5.0119,-5.012,0,-5.0188,-5.0189,-5.019,-4.9973,-4.9966,-4.996,-4.9953,-5.0027,-5.0034,-5.0042,0,0,0,0,0,0,0,0,0,0,0,0,0,-4.9799,-4.9806,-5.0119,-5.012,-5.0121,-5.0188,-5.0189,-5.019,-4.9974,-4.9966,-4.9958,-4.995,-5.0024,-5.0033,-5.0043,0,0,0,0,0,0,0,0,0,0,0,0,0,-4.991,-4.9808,-5.0119,-5.0021,-5.0013,-5.0188,-5.0189,-5.019,-4.9976,-4.9966,-4.9956,-4.9946,-5.0021,-5.0032,-5.0044,-5.0318,0,0,-5.0082,-5.0087,0,0,0,0,0,0,0,0,-4.9904,-4.9922,-5.0034,-5.0028,-5.0019,-5.0061,-5.0103,-5.0233,-4.9978,-4.999,-4.9953,-4.9942,-5.0046,-5.0056,-5.0091,-5.0321,-5.0324,-5.0083,-5.009,-5.0095,-5.0099,0,0,0,0,0,0,0,-4.9897,-4.9918,-5.0146,-5.0036,-5.0027,-4.9973,-4.9978,-5.0126,-5.0073,-4.9988,-4.9972,-4.9983,-5.004,-5.0079,-5.0091,-5.0325,-5.0082,-5.0093,-5.0101,-5.0105,-5.0782,-5.0792,0,0,0,0,0,0,-4.9902,-4.9913,-5.0144,-5.0148,-4.9936,-4.9987,-4.9993,-5.0058,-5.0071,-5.0063,-4.9992,-4.9973,-5.0063,-5.0077,-5.0092,-5.0413,-5.0095,-5.0107,-5.0114,-5.0771,-5.0784,-5.0796,0,0,0,0,0,0,-4.9896,-4.9925,-5.0141,-5.0026,-5.005,-5.0003,-5.0078,-5.0065,-5.0103,-5.0073,-5.0063,-5.0042,-5.0056,-5.0075,-5.0263,-5.0412,-5.0112,-5.0123,-5.0759,-5.0775,-5.079,-5.1057,0,0,0,0,0,0,-4.9888,-4.9924,-5.0027,-5.003,-5.0057,-5.0312,-5.0088,-5.0073,-5.0125,-5.0101,-5.0118,-5.0111,-5.005,-5.0246,-5.0275,-5.0424,-5.0133,-5.0745,-5.0766,-5.0785,-5.1034,-5.108,-5.1119,0,0,0,0,0,-4.9877,-5.01,-5.0034,-5.0063,-5.0186,-5.0321,-5.0336,-5.026,-5.0138,-5.0241,-5.0222,-5.011,-5.0391,-5.0267,-5.0298,-5.0452,-5.0736,-5.076,-5.0784,-5.1015,-5.1071,-5.1118,0,0,0,0,0,0,-5.0117,-5.0099,-5.0025,-5.0256,-5.0292,-5.0284,-5.0412,-5.0322,-5.0393,-5.0368,-5.0272,-5.0277,-5.0483,-5.0485,-5.0348,-5.0717,-5.0542,-5.0574,-5.0708,-5.076,-5.0801,-5.0797,-5.0143,0,0,0,0,0,-5.0197,-5.0308,-5.0286,-5.0492,-5.0513,-5.0461,-5.0516,-5.0455,-5.0488,-5.0502,-5.0496,-5.0533,-5.0628,-5.0694,-5.0781,-5.1033,-5.1033,-5.1154,-5.1196,-5.1231,-5.126,-5.1392,-5.1446,-5.0875,-5.0875,-5.0874,0,0,-5.0364,-5.0367,-5.0443,-5.054,-5.056,-5.0677,-5.0475,-5.0607,-5.0693,-5.0522,-5.0699,-5.0696,-5.073,-5.0951,-5.1048,-5.096,-5.1417,-5.1261,-5.1289,-5.1299,-5.1422,-5.1476,-5.1525,-5.0891,-5.0888,-5.0886,0,0,-5.0726,-5.0741,-5.0913,-5.0937,-5.0969,-5.0932,-5.0974,-5.098,-5.0971,-5.1146,-5.102,-5.112,-5.1288,-5.1317,-5.1354,-5.1726,-5.1626,-5.1757,-5.1978,-5.2108,-5.2153,-5.2192,-5.2325,-5.2374,-5.1785,-5.1786,-5.1786,0,-5.093,-5.1101,-5.1014,-5.1155,-5.1201,-5.105,-5.1224,-5.1251,-5.1311,-5.1347,-5.1246,-5.1452,-5.1465,-5.169,-5.1781,-5.1815,-5.186,-5.1755,-5.2153,-5.2192,-5.2228,-5.2353,-5.2403,-5.1801,-5.18,-5.1798,-5.1796,0,-5.1348,-5.1469,-5.1604,-5.1665,-5.1726,-5.1883,-5.182,-5.1892,-5.1825,-5.1798,-5.1978,-5.1987,-5.2072,-5.2121,-5.2057,-5.2337,-5.2281,-5.217,-5.1992,-5.2299,-5.2415,-5.2463,-5.1824,-5.1818,-5.1814,-5.181,0,0,-5.1868,-5.1876,-5.1927,-5.1952,-5.1976,-5.2067,-5.2217,-5.2299,-5.2363,-5.2408,-5.2531,-5.2676,-5.2571,-5.2613,-5.2551,-5.2665,-5.2959,-5.2538,-5.2538,-5.2617,-5.3268,-5.3353,-5.341,-5.2892,-5.2901,-5.2908,-5.3265,0,-5.2225,-5.2481,-5.2406,-5.2663,-5.2772,-5.2629,-5.2759,-5.2788,-5.2767,-5.2856,-5.2832,-5.2936,-5.279,-5.2815,-5.2921,-5.2901,-5.3089,-5.2874,-5.3006,-5.3012,-5.3003,-5.3471,-5.3561,-5.3898,-5.331,-5.3317,-5.3323,0,-5.2677,-5.2739,-5.3007,-5.301,-5.3054,-5.3172,-5.3241,-5.3328,-5.3357,-5.3333,-5.338,-5.3293,-5.344,-5.3261,-5.3461,-5.3317,-5.3365,-5.3364,-5.3375,-5.3385,-5.3187,-5.3495,-5.4004,-5.4055,-5.3394,-5.3388,-5.3383,0,-5.3029,-5.3179,-5.3359,-5.3384,-5.3393,-5.348,-5.3488,-5.3506,-5.356,-5.362,-5.3654,-5.3731,-5.3773,-5.3834,-5.3771,-5.3646,-5.3981,-5.3797,-5.3966,-5.3968,-5.4044,-5.404,-5.4569,-5.4075,-5.4074,-5.4073,-5.4072,0,-5.3436,-5.3606,-5.3517,-5.3628,-5.3813,-5.3724,-5.391,-5.3902,-5.3919,-5.4026,-5.3906,-5.4008,-5.3917,-5.4012,-5.3962,-5.4136,-5.4156,-5.414,-5.4126,-5.4152,-5.4154,-5.4184,-5.4159,-5.4086,-5.4083,-5.4081,-5.4079,0,-5.3862,-5.3809,-5.3995,-5.3987,-5.3989,-5.4127,-5.4119,-5.4221,-5.419,-5.4326,-5.4353,-5.4304,-5.4409,-5.435,-5.4458,-5.4424,-5.4649,-5.4602,-5.464,-5.4628,-5.48,-5.4785,-5.5368,-5.5439,-5.4899,-5.4904,-5.4908,0,-5.4126,-5.4253,-5.4259,-5.4321,-5.4336,-5.4438,-5.4492,-5.4409,-5.447,-5.4511,-5.4608,-5.4702,-5.4772,-5.4945,-5.492,-5.5001,-5.4955,-5.5154,-5.4967,-5.4989,-5.4959,-5.4952,-5.4964,-5.5192,-5.5199,-5.5204,-5.5208,0,-5.4601,-5.4568,-5.465,-5.4723,-5.4791,-5.4844,-5.4888,-5.4946,-5.4863,-5.4938,-5.5042,-5.5097,-5.5205,-5.53,-5.5369,-5.5376,-5.528,-5.5267,-5.531,-5.5339,-5.5355,-5.5349,-5.4744,-5.5254,-5.5249,-5.5246,-5.5244,-5.5242,-5.4954,-5.506,-5.508,-5.5175,-5.5198,-5.5242,-5.5336,-5.5316,-5.5402,-5.5483,-5.5429,-5.5553,-5.5576,-5.5658,-5.5678,-5.5773,-5.5693,-5.5756,-5.5772,-5.5789,-5.5813,-5.534,-5.5785,-5.5784,-5.5782,-5.5781,-5.578,0,-5.5422,-5.5428,-5.5516,-5.558,-5.5655,-5.5555,-5.5598,-5.5667,-5.5777,-5.5807,-5.5878,-5.5998,-5.6088,-5.6069,-5.6151,-5.6231,-5.6188,-5.6255,-5.6249,-5.6252,-5.588,-5.5834,-5.6288,-5.6288,-5.6288,-5.6288,-5.6287,-5.6287,-5.5675,-5.5848,-5.5818,-5.6001,-5.6004,-5.6124,-5.6157,-5.6196,-5.6219,-5.6358,-5.6432,-5.6418,-5.6429,-5.6509,-5.6588,-5.6579,-5.6615,-5.6699,-5.6675,-5.6328,-5.6278,-5.623,-5.6187,-5.6707,-5.6708,-5.7039,-5.7042,-5.7044]},{"header":{"parameterUnit":"m.s-1","parameterCategory":1,"la1":30.2991,"la2":30.254,"lo1":-89.0895,"lo2":-89.0444,"dy":0.0017,"dx":0.0017,"nx":28,"ny":28,"refTime":"2023-11-01T09:00:00:Z","depth":0,"parameterNumber":3,"parameterNumberName":"V-component_of_WINDS"},"data":[0,0,0,0,0,0,0,0,0,0,0,0,0,0,0,0,0,0,0,0,0,0,0,0,0,0,0,0,0,0,0,0,0,0,0,0,0,0,0,0,0,0,0,0,0,0,0,0,0,0,0,0,0,0,0,0,0,0,-5.0868,-5.0868,0,-5.092,-5.092,-5.0921,-5.0855,-5.0852,-5.085,-5.0847,-5.0898,-5.0902,-5.0905,0,0,0,0,0,0,0,0,0,0,0,0,0,-5.0706,-5.0709,-5.0867,-5.0868,-5.0869,-5.092,-5.092,-5.0921,-5.0855,-5.0852,-5.0849,-5.0846,-5.0897,-5.0901,-5.0906,0,0,0,0,0,0,0,0,0,0,0,0,0,-5.0769,-5.071,-5.0867,-5.0842,-5.084,-5.092,-5.092,-5.0921,-5.0856,-5.0852,-5.0848,-5.0845,-5.0896,-5.0901,-5.0906,-5.1012,0,0,-5.0923,-5.0925,0,0,0,0,0,0,0,0,-5.0765,-5.0775,-5.0845,-5.0844,-5.0842,-5.0877,-5.0882,-5.0952,-5.0857,-5.085,-5.0847,-5.0843,-5.0894,-5.0899,-5.0917,-5.1015,-5.1017,-5.0923,-5.0927,-5.0929,-5.093,0,0,0,0,0,0,0,-5.0761,-5.0772,-5.0888,-5.0846,-5.0844,-5.0826,-5.0831,-5.0895,-5.0891,-5.085,-5.0845,-5.0853,-5.0892,-5.0912,-5.0918,-5.1017,-5.0923,-5.0928,-5.0931,-5.0933,-5.12,-5.1203,0,0,0,0,0,0,-5.076,-5.0769,-5.0886,-5.089,-5.0794,-5.0832,-5.0838,-5.0869,-5.0891,-5.089,-5.0856,-5.0849,-5.0904,-5.0911,-5.0919,-5.1041,-5.0929,-5.0934,-5.0937,-5.1196,-5.1201,-5.1205,0,0,0,0,0,0,-5.0757,-5.0771,-5.0884,-5.0828,-5.0841,-5.0839,-5.0875,-5.0872,-5.0892,-5.0895,-5.0893,-5.0876,-5.0902,-5.0912,-5.0989,-5.1042,-5.0936,-5.0941,-5.1191,-5.1197,-5.1203,-5.1288,0,0,0,0,0,0,-5.0752,-5.077,-5.0812,-5.0829,-5.0844,-5.0955,-5.0878,-5.0876,-5.0902,-5.0894,-5.0914,-5.0914,-5.09,-5.0981,-5.0994,-5.1048,-5.0946,-5.1187,-5.1194,-5.1201,-5.1281,-5.1296,-5.131,0,0,0,0,0,-5.0747,-5.0835,-5.0815,-5.0829,-5.0897,-5.0958,-5.0966,-5.0949,-5.0906,-5.0947,-5.0948,-5.0913,-5.1035,-5.0989,-5.1004,-5.106,-5.1183,-5.1192,-5.12,-5.1274,-5.1293,-5.1309,0,0,0,0,0,0,-5.0824,-5.0836,-5.0814,-5.0911,-5.0934,-5.0947,-5.0998,-5.097,-5.1006,-5.0997,-5.0973,-5.0978,-5.106,-5.1068,-5.1017,-5.1161,-5.1101,-5.1113,-5.1153,-5.1171,-5.1185,-5.118,-5.095,0,0,0,0,0,-5.0852,-5.0902,-5.091,-5.0994,-5.1007,-5.1,-5.1027,-5.1011,-5.1034,-5.1043,-5.105,-5.1072,-5.1115,-5.1144,-5.1183,-5.1282,-5.1283,-5.1327,-5.1342,-5.1353,-5.1363,-5.1412,-5.143,-5.1233,-5.1233,-5.1233,0,0,-5.091,-5.0923,-5.0957,-5.101,-5.1026,-5.1076,-5.1009,-5.1066,-5.1102,-5.1051,-5.1124,-5.113,-5.1153,-5.124,-5.1279,-5.1249,-5.1418,-5.1364,-5.1374,-5.1377,-5.1423,-5.1441,-5.1458,-5.1239,-5.1238,-5.1237,0,0,-5.1042,-5.1059,-5.1128,-5.1145,-5.117,-5.1165,-5.1182,-5.1198,-5.12,-5.1273,-5.1234,-5.1277,-5.1352,-5.1369,-5.1387,-5.1522,-5.149,-5.1536,-5.161,-5.1658,-5.1674,-5.1687,-5.1732,-5.1749,-5.1546,-5.1546,-5.1546,0,-5.1111,-5.1187,-5.1168,-5.1226,-5.1249,-5.1205,-5.1274,-5.1291,-5.1328,-5.1343,-5.131,-5.1401,-5.1414,-5.1502,-5.1535,-5.1552,-5.1568,-5.1532,-5.1673,-5.1687,-5.1699,-5.1741,-5.1759,-5.1551,-5.1551,-5.155,-5.1549,0,-5.1269,-5.1322,-5.1375,-5.141,-5.1439,-5.1503,-5.1491,-5.1523,-5.1504,-5.1502,-5.1574,-5.1587,-5.1627,-5.1648,-5.1631,-5.1733,-5.1713,-5.1677,-5.1616,-5.1723,-5.1763,-5.1779,-5.1559,-5.1557,-5.1555,-5.1554,0,0,-5.1451,-5.1473,-5.1493,-5.1507,-5.153,-5.1569,-5.1629,-5.1669,-5.1694,-5.1721,-5.1768,-5.1832,-5.1797,-5.1818,-5.1802,-5.1845,-5.1946,-5.1803,-5.1803,-5.1826,-5.2056,-5.2081,-5.21,-5.1926,-5.1929,-5.1931,-5.2053,0,-5.158,-5.1685,-5.1668,-5.1768,-5.1814,-5.1772,-5.1824,-5.1842,-5.1841,-5.1879,-5.1877,-5.1921,-5.1874,-5.1886,-5.1926,-5.1925,-5.1991,-5.1917,-5.1967,-5.1969,-5.196,-5.2121,-5.2149,-5.2263,-5.2068,-5.2071,-5.2073,0,-5.1746,-5.1776,-5.1881,-5.1893,-5.1912,-5.1959,-5.1991,-5.2029,-5.2048,-5.2044,-5.2066,-5.2042,-5.2099,-5.2039,-5.2116,-5.2065,-5.2085,-5.2087,-5.2091,-5.2093,-5.2026,-5.2125,-5.2299,-5.2315,-5.2097,-5.2095,-5.2094,0,-5.1863,-5.1932,-5.2002,-5.2016,-5.2033,-5.2066,-5.2074,-5.209,-5.2113,-5.2142,-5.2156,-5.2191,-5.2209,-5.2236,-5.222,-5.2178,-5.2299,-5.2238,-5.2295,-5.2295,-5.232,-5.2319,-5.2497,-5.2338,-5.2338,-5.2337,-5.2337,0,-5.2008,-5.2073,-5.2055,-5.2098,-5.2168,-5.2147,-5.2217,-5.222,-5.2234,-5.2275,-5.2241,-5.228,-5.2259,-5.2296,-5.2284,-5.2348,-5.2357,-5.2354,-5.2349,-5.2355,-5.2355,-5.2366,-5.2357,-5.2342,-5.2341,-5.234,-5.2339,0,-5.2152,-5.2143,-5.2216,-5.2225,-5.2229,-5.228,-5.2287,-5.2326,-5.2321,-5.2374,-5.2385,-5.2378,-5.2419,-5.2407,-5.2452,-5.2444,-5.2523,-5.251,-5.2517,-5.2513,-5.2569,-5.2562,-5.2759,-5.2782,-5.261,-5.2612,-5.2613,0,-5.2243,-5.2292,-5.2306,-5.2331,-5.2341,-5.2383,-5.2406,-5.2386,-5.2412,-5.2435,-5.247,-5.2509,-5.2538,-5.2607,-5.2604,-5.2638,-5.2624,-5.269,-5.2628,-5.2632,-5.2621,-5.2617,-5.262,-5.2702,-5.2704,-5.2705,-5.2707,0,-5.2406,-5.2398,-5.2433,-5.2466,-5.2494,-5.2519,-5.2541,-5.2563,-5.2544,-5.2574,-5.2616,-5.2639,-5.2684,-5.2721,-5.2751,-5.2758,-5.2728,-5.2726,-5.274,-5.2746,-5.2746,-5.2743,-5.2547,-5.2721,-5.272,-5.2719,-5.2718,-5.2717,-5.2524,-5.2564,-5.2578,-5.2617,-5.2631,-5.2652,-5.2688,-5.2687,-5.2722,-5.2756,-5.2743,-5.279,-5.2804,-5.2841,-5.2852,-5.2887,-5.2862,-5.2883,-5.2888,-5.2893,-5.2899,-5.2743,-5.2893,-5.2893,-5.2892,-5.2892,-5.2892,0,-5.2682,-5.2688,-5.2725,-5.2755,-5.2785,-5.2755,-5.2777,-5.2803,-5.2845,-5.2862,-5.2891,-5.2937,-5.2972,-5.2973,-5.3005,-5.3033,-5.302,-5.3042,-5.3039,-5.304,-5.2921,-5.2904,-5.3052,-5.3052,-5.3052,-5.3052,-5.3052,-5.3052,-5.2767,-5.2831,-5.2825,-5.2895,-5.2901,-5.2947,-5.2961,-5.2978,-5.2991,-5.3044,-5.3073,-5.3073,-5.3082,-5.3114,-5.3145,-5.3144,-5.3156,-5.3182,-5.3176,-5.3065,-5.3049,-5.3034,-5.3017,-5.3186,-5.3186,-5.3291,-5.3292,-5.3293]}]]